Time,TemperatureF,DewpointF,PressureIn,WindDirection,WindDirectionDegrees,WindSpeedMPH,WindSpeedGustMPH,Humidity,HourlyPrecipIn,Conditions,Clouds,dailyrainin,SoftwareType,DateUTC
2013-03-16 20:27:00,36.0,22.2,29.84,WNW,302,2.0,2.0,57,0.00,,,0.00,Wunderground v.1.15,2013-03-17 00:27:00,
2013-03-16 21:16:00,35.9,23.7,29.86,West,274,1.0,2.0,61,0.00,,,0.00,Wunderground v.1.15,2013-03-17 01:16:00,
2013-03-16 21:22:00,35.9,24.1,29.86,West,261,2.0,3.0,62,0.00,,,0.00,Wunderground v.1.15,2013-03-17 01:22:00,
2013-03-16 21:27:00,35.9,24.1,29.86,West,275,3.0,3.0,62,0.00,,,0.00,Wunderground v.1.15,2013-03-17 01:27:00,
2013-03-16 21:37:00,35.9,25.3,29.86,WNW,283,5.0,5.0,65,0.00,,,0.00,Wunderground v.1.15,2013-03-17 01:37:00,
2013-03-16 21:42:00,35.8,25.9,29.87,West,277,5.0,5.0,67,0.00,,,0.00,Wunderground v.1.15,2013-03-17 01:42:00,
2013-03-16 21:47:00,35.8,26.3,29.86,West,275,5.0,5.0,68,0.00,,,0.00,Wunderground v.1.15,2013-03-17 01:47:00,
2013-03-16 21:52:00,35.7,26.5,29.86,West,280,4.0,5.0,69,0.00,,,0.00,Wunderground v.1.15,2013-03-17 01:52:00,
2013-03-16 22:02:00,35.7,27.6,29.87,WNW,293,5.0,5.0,72,0.00,,,0.00,Wunderground v.1.15,2013-03-17 02:02:00,
2013-03-16 22:07:00,35.7,27.9,29.86,West,271,5.0,6.0,73,0.00,,,0.00,Wunderground v.1.15,2013-03-17 02:07:00,
2013-03-16 22:12:00,35.6,27.8,29.87,West,264,5.0,5.0,73,0.00,,,0.00,Wunderground v.1.15,2013-03-17 02:12:00,
2013-03-16 22:22:00,35.6,28.1,29.87,West,275,4.0,4.0,74,0.00,,,0.00,Wunderground v.1.15,2013-03-17 02:22:00,
2013-03-16 22:27:00,35.5,28.0,29.88,WNW,286,3.0,4.0,74,0.00,,,0.00,Wunderground v.1.15,2013-03-17 02:27:00,
2013-03-16 22:32:00,35.7,28.6,29.88,WNW,286,2.0,2.0,75,0.00,,,0.00,Wunderground v.1.15,2013-03-17 02:32:00,
2013-03-16 22:41:00,36.8,29.6,29.88,WNW,286,0.0,2.0,75,0.00,,,0.00,Wunderground v.1.15,2013-03-17 02:41:00,
2013-03-16 22:47:00,37.0,29.1,29.88,WNW,297,1.0,2.0,73,0.00,,,0.00,Wunderground v.1.15,2013-03-17 02:47:00,
2013-03-16 22:52:00,37.1,29.2,29.88,NW,313,1.0,2.0,73,0.00,,,0.00,Wunderground v.1.15,2013-03-17 02:52:00,
2013-03-16 22:57:00,37.1,29.2,29.88,NW,313,1.0,2.0,73,0.00,,,0.00,Wunderground v.1.15,2013-03-17 02:57:00,
2013-03-16 23:02:00,37.2,29.0,29.88,NW,313,1.0,2.0,72,0.00,,,0.00,Wunderground v.1.15,2013-03-17 03:02:00,
2013-03-16 23:12:00,36.3,28.1,29.88,NW,313,2.0,2.0,72,0.00,,,0.00,Wunderground v.1.15,2013-03-17 03:12:00,
2013-03-16 23:17:00,35.8,28.0,29.88,West,276,3.0,3.0,73,0.00,,,0.00,Wunderground v.1.15,2013-03-17 03:17:00,
2013-03-16 23:27:00,35.5,27.7,29.89,West,275,3.0,3.0,73,0.00,,,0.00,Wunderground v.1.15,2013-03-17 03:27:00,
2013-03-16 23:32:00,35.4,27.9,29.89,West,280,3.0,3.0,74,0.00,,,0.00,Wunderground v.1.15,2013-03-17 03:32:00,
2013-03-16 23:37:00,35.5,27.7,29.89,West,279,3.0,3.0,73,0.00,,,0.00,Wunderground v.1.15,2013-03-17 03:37:00,
2013-03-16 23:42:00,35.4,27.6,29.89,West,279,3.0,4.0,73,0.00,,,0.00,Wunderground v.1.15,2013-03-17 03:42:00,
2013-03-16 23:47:00,35.4,27.6,29.89,WNW,299,3.0,4.0,73,0.00,,,0.00,Wunderground v.1.15,2013-03-17 03:47:00,
2013-03-16 23:52:00,35.4,27.3,29.89,WNW,297,3.0,4.0,72,0.00,,,0.00,Wunderground v.1.15,2013-03-17 03:52:00,
2013-03-16 23:57:00,35.4,27.3,29.89,NW,309,3.0,4.0,72,0.00,,,0.00,Wunderground v.1.15,2013-03-17 03:57:00,